Regional Weather Roundup
Issued by NWS

Home | Current Version | Previous Version | Graphics & Text | Print | Product List | Glossary On
Versions: 1 2 3 4 5 6 7 8 9 10 11 12 13 14 15 16 17 18 19 20 21 22 23 24 25 26 27 28 29 30 31 32 33 34 35 36 37 38 39 40 41 42 43 44 45 46 47 48 49 50
000
ASUS43 KMKX 012059
RWRWI

WISCONSIN REGIONAL WEATHER ROUNDUP
NATIONAL WEATHER SERVICE MILWAUKEE/SULLIVAN WI
400 PM CDT WED APR 01 2015

NOTE: "FAIR" INDICATES FEW OR NO CLOUDS BELOW 12,000 FEET WITH NO
SIGNIFICANT WEATHER AND/OR OBSTRUCTIONS TO VISIBILITY.

WIZ001-002-006>008-014>016-023>028-012200-
NORTHWEST WISCONSIN

CITY           SKY/WX    TMP DP  RH WIND       PRES   REMARKS
SUPERIOR ARPT  CLOUDY    35  33  92 E13G20    29.58F WCI  26
ASHLAND        CLOUDY    63  36  36 S13G20    29.57F
HAYWARD        LGT RAIN  58  41  53 SE6       29.57F
SIREN          CLOUDY    67  41  39 S18G31    29.51F
CUMBERLAND     TSTM      61  36  39 S8        29.59F
RICE LAKE      CLOUDY    66  35  32 SE8       29.61F THUNDER
CHETEK         CLOUDY    69  38  32 SE7       29.61F
LADYSMITH      CLOUDY    64  35  34 SE8G17    29.67F
EAU CLAIRE     NOT AVBL
MENOMONIE      PTSUNNY   78  34  20 S23G38    29.60F THUNDER
NEW RICHMOND   CLOUDY    76  35  22 S23G33    29.55F
OSCEOLA        CLOUDY    74  38  26 S21G30    29.55F
$$

WIZ003>005-009-010-017-018-012200-
NORTH CENTRAL WISCONSIN

CITY           SKY/WX    TMP DP  RH WIND       PRES   REMARKS
MANITOWISH WTR CLOUDY    55  34  45 S12       29.67F
ARBOR VITAE    PTSUNNY   57  33  40 S14       29.69F
WOODRUFF       PTSUNNY   57  33  40 S14       29.69F
RHINELANDER    MOSUNNY   59  34  39 S17G28    29.72F
EAGLE RIVER    PTSUNNY   57  28  33 S12G23    29.70F
LAND O LAKES   CLOUDY    55  30  38 S9G22     29.70F
PHILLIPS       CLOUDY    61  37  40 S18G28    29.67F
TOMAHAWK       MOSUNNY   60  33  36 S10G22    29.71F
MEDFORD        PTSUNNY   63  38  40 S16G23    29.70F
MERRILL        MOSUNNY   64  36  36 S10G21    29.73F
$$

WIZ029-030-035-036-043>047-012200-
CENTRAL WISCONSIN

CITY           SKY/WX    TMP DP  RH WIND       PRES   REMARKS
WAUSAU         SUNNY     66  35  31 S17G28    29.71F
MOSINEE        SUNNY     66  36  32 S23       29.74F
MARSHFIELD     MOSUNNY   74  35  24 S22G29    29.69F
STEVENS POINT  MOSUNNY   69  35  28 S21G28    29.74F
WAUPACA        SUNNY     71  33  25 SE20G25   29.78F
WAUTOMA        NOT AVBL
WISC RAPIDS    MOSUNNY   75  31  19 S18G31    29.73F
CAMP DOUGLAS   NOT AVBL
$$

WIZ011>013-019>022-031-037>040-048>050-012200-
NORTHEAST WISCONSIN

CITY           SKY/WX    TMP DP  RH WIND       PRES   REMARKS
ANTIGO         MOSUNNY   56  38  49 S21       29.77F
SHAWANO        SUNNY     63  37  38 S13       29.81F
OCONTO         MOSUNNY   53  34  48 SE16      29.84F
STURGEON BAY   MOSUNNY   46  34  61 S21G26    29.88F
GREEN BAY      SUNNY     56  39  53 SE22G30   29.82F
MANITOWOC      NOT AVBL
APPLETON       MOSUNNY   61  36  39 SE18G25   29.82F
CLINTONVILLE   SUNNY     61  36  39 SE16G22   29.80F
OSHKOSH        MOSUNNY   64  39  39 SE17      29.80F
$$

WIZ032>034-041-042-053>061-012200-
SOUTHWEST WISCONSIN

CITY           SKY/WX    TMP DP  RH WIND       PRES   REMARKS
LA CROSSE      SUNNY     82  33  17 S30G41    29.65F HX  80
SPARTA         MOSUNNY   79  29  16 S16G32    29.70F
VIROQUA        SUNNY     76  34  21 S25G33    29.73F
BOSCOBEL       SUNNY     81  34  18 S20G31    29.72F
PRAIRIE DU CHI SUNNY     79  29  16 S18G28    29.72F
PLATTEVILLE    SUNNY     78  35  21 S25G35    29.79F
$$

WIZ056-057-062-063-064-067-068-012200-
SOUTH CENTRAL WISCONSIN

CITY           SKY/WX    TMP DP  RH WIND       PRES   REMARKS
REEDSBURG      SUNNY     75  38  26 S21G28    29.76F
BARABOO/DELLS  SUNNY     75  32  21 SW15G25   29.77F
LONE ROCK      NOT AVBL
MINERAL POINT  SUNNY     77  30  18 S23G31    29.79F
MADISON        PTSUNNY   74  36  25 S21G30    29.80F
MIDDLETON      SUNNY     76  30  18 S22G30    29.81F
WATERTOWN      MOSUNNY   73  40  30 S14G24    29.83F
MONROE         SUNNY     73  36  25 S26G32    29.83F
JANESVILLE     SUNNY     77  34  20 S20G25    29.84F
$$

WIZ051-052-058>065-066-070>072-012200-
SOUTHEAST WISCONSIN

CITY           SKY/WX    TMP DP  RH WIND       PRES   REMARKS
MILWAUKEE      PTSUNNY   55  36  48 SE15      29.90F
WAUKESHA       PTSUNNY   64  39  39 SE12G21   29.88F
MILWAUKEE/TIMM SUNNY     57  34  41 SE10      29.90F
RACINE         SUNNY     54  36  50 S16       29.92F
BURLINGTON     SUNNY     72  36  26 S16G23    29.88F
KENOSHA        SUNNY     65  40  39 SE14      29.90F
FOND DU LAC    MOSUNNY   65  39  38 SE18      29.82F
SHEBOYGAN      SUNNY     50  36  58 S17G23    29.88F
WEST BEND      MOSUNNY   57  34  41 SE10G17   29.88F
JUNEAU         MOSUNNY   71  38  30 S21G26    29.84F
$$

LSZ147-162-012200-
LAKE SUPERIOR

STATION/POSITION TIME  TEMP    WIND        PRES    WAVE
                       AIR SEA DIR/SP/G            HT/PER
                 (UTC) (F)     (DEG/KT/KT) (MB)    (FT/S)
DEVILS ISLAND    2000   36      50/ 16/ 17 1003.1F
PORT WING        2040   35      40/ 14/ 17 1002.7F
SAXON HARBOR     2022   61     200/  6/ 19 1003.0R
$$

LMZ867-665-643>646-012200-
LAKE MICHIGAN

STATION/POSITION TIME  TEMP    WIND        PRES    WAVE
                       AIR SEA DIR/SP/G            HT/PER
                 (UTC) (F)     (DEG/KT/KT) (MB)    (FT/S)
NORTHPORT PIER   2004   34     140/ 12/ 13 1013.2F
KEWAUNEE LAKESHO 2000   37     170/  7/  9 1012.9F
SHEBOYGAN LAKESH 2000   37     170/ 10/ 12 1014.6F
PORT WASHINGTON  2040   42     170/  7/ 10 1013.9F
MILWAUKEE LAKESH 2000   39     150/  4/  6   N/A
KENOSHA   LAKESH 2000   42     160/  6/  8 1013.9F
$$

TC  - TEMPERATURE IN CELSIUS
VSB - VISIBILITY IN STATUTE MILES
WCI - WIND CHILL INDEX
HX  - HEAT INDEX




USA.gov is the U.S. government's official web portal to all federal, state and local government web resources and services.